Location: Laas
(43.4693°N, 0.3073°E)
Time: 16:03:34
(UTC+00:00)

Cosmos 1346 Rocket - Pass Details

Date: 25 October 2020
Orbit: 535 x 543 km, 81.2° (Epoch: 23 November)

Event Time Altitude Azimuth Distance (km) Brightness Sun altitude
Rises 18:00:20 0° 4° (N) 2,712 6.3 -11.7°
Reaches altitude 10° 18:02:58 10° 21° (NNE) 1,816 5.2 -12.2°
Maximum altitude 18:05:57 20° 70° (ENE) 1,293 4.1 -12.7°
Enters shadow 18:06:14 20° 76° (ENE) 1,298 4.1 -12.7°
